Weather History for KNSI - December, 2013

Change the Weather History Date:

Saturday, December 7, 2013

  Actual Average Record
Temperature  
Mean Temperature 56 °F -  
Max Temperature 57 °F 59 °F 73 °F (2006)
Min Temperature 55 °F 50 °F 43 °F (2011)
Degree Days  
Heating Degree Days 9    
Growing Degree Days 6 (Base 50)    
Moisture  
Dew Point 49 °F    
Average Humidity 76    
Maximum Humidity 83    
Minimum Humidity 59    
Precipitation  
Precipitation 0.05 in - - ()
Sea Level Pressure  
Sea Level Pressure 30.09 in    
Wind  
Wind Speed 17 mph (West)    
Max Wind Speed 26 mph    
Max Gust Speed 39 mph    
Visibility 8 miles    
Events Rain    
Averages and records for this station are not official NWS values.
T = Trace of Precipitation, MM = Missing Value Source: NWS Daily Summary

Daily Weather History Graph

Daily Weather History Graph

Search for Another Location

Airport or City:

Trip Planner

Search our weather history database for the weather conditions in past years. The results will help you decide how hot, cold, wet, or windy it might be!

Date:

Astronomy

Dec. 07, 2013 Rise Set
Actual Time 6:48 AM PST 4:50 PM PST
Civil Twilight 6:21 AM PST 5:17 PM PST
Nautical Twilight 5:50 AM PST 5:48 PM PST
Astronomical Twilight 5:20 AM PST 6:18 PM PST
Moon 10:47 AM PST (12/7) 10:25 PM PST (12/7)
Length of Visible Light 10h 56m
Length of Day
10h 01m
Waxing Crescent, 30% of the Moon is Illuminated
Dec 7
Waxing Crescent
Dec 9
First Quarter
Dec 17
Full
Dec 25
Last Quarter
Jan 1
New

Hourly Weather History & Observations

Time (PST) Temp. Dew Point Humidity Pressure Visibility Wind Dir Wind Speed Gust Speed Precip Events Conditions
12:53 AM - - N/A% 30.13 in 10.0 mi WNW 11.5 mph - N/A   Mostly Cloudy
1:53 AM - - N/A% 30.11 in 10.0 mi West 10.4 mph - N/A   Clear
2:53 AM - - N/A% 30.10 in 10.0 mi West 11.5 mph - N/A   Overcast
3:53 AM - - N/A% 30.08 in 10.0 mi WSW 15.0 mph - N/A   Scattered Clouds
4:53 AM - - N/A% 30.08 in 10.0 mi WSW 13.8 mph - N/A   Clear
5:53 AM - - N/A% 30.08 in 10.0 mi WSW 12.7 mph - N/A   Overcast
6:46 AM - - N/A% 30.09 in 10.0 mi WSW 16.1 mph - 0.01 in   Overcast
6:53 AM - - N/A% 30.09 in 10.0 mi WSW 15.0 mph - 0.01 in   Mostly Cloudy
7:30 AM - - N/A% 30.10 in 1.8 mi SW 11.5 mph - 0.02 in   Overcast
7:37 AM - - N/A% 30.10 in 3.0 mi WSW 16.1 mph 23.0 mph 0.02 in   Overcast
7:53 AM 55.0 °F 48.0 °F 77% 30.09 in 7.0 mi SW 16.1 mph - 0.02 in   Mostly Cloudy
8:32 AM 55.9 °F 50.0 °F 80% 30.09 in 7.0 mi SW 19.6 mph - N/A   Overcast
8:53 AM 57.0 °F 50.0 °F 77% 30.09 in 7.0 mi SW 20.7 mph 26.5 mph N/A   Overcast
9:14 AM 55.9 °F 50.0 °F 80% 30.10 in 7.0 mi WSW 16.1 mph 24.2 mph 0.00 in Rain Rain
9:33 AM 55.9 °F 50.0 °F 80% 30.10 in 7.0 mi WSW 18.4 mph - 0.01 in   Light Drizzle
9:42 AM 55.0 °F 50.0 °F 83% 30.10 in 7.0 mi WSW 20.7 mph 29.9 mph 0.01 in   Light Drizzle
9:53 AM 55.0 °F 50.0 °F 83% 30.09 in 7.0 mi WSW 16.1 mph - 0.01 in   Light Drizzle
10:53 AM 55.0 °F 50.0 °F 83% 30.09 in 7.0 mi West 18.4 mph 27.6 mph 0.00 in   Mostly Cloudy
11:30 AM 57.9 °F 51.1 °F 78% 30.08 in 7.0 mi West 24.2 mph 33.4 mph N/A   Scattered Clouds
11:53 AM 57.9 °F 51.1 °F 78% 30.07 in 7.0 mi West 25.3 mph 33.4 mph N/A   Mostly Cloudy
12:01 PM 57.9 °F 50.0 °F 75% 30.07 in 4.0 mi West 24.2 mph 32.2 mph 0.00 in Rain Rain
12:14 PM 57.9 °F 50.0 °F 75% 30.08 in 4.0 mi WNW 25.3 mph 35.7 mph 0.01 in Rain Light Rain
12:36 PM 57.9 °F 50.0 °F 75% 30.07 in 6.0 mi NW 20.7 mph - 0.01 in Rain Light Rain
12:53 PM 57.9 °F 50.0 °F 75% 30.06 in 7.0 mi NW 23.0 mph 27.6 mph 0.01 in   Mostly Cloudy
1:53 PM 57.0 °F 46.9 °F 69% 30.04 in 7.0 mi NW 23.0 mph 32.2 mph N/A   Scattered Clouds
2:53 PM 55.9 °F 44.1 °F 64% 30.04 in 7.0 mi WNW 21.9 mph 33.4 mph N/A   Scattered Clouds
3:53 PM 55.0 °F 41.0 °F 59% 30.05 in 7.0 mi WNW 23.0 mph 32.2 mph N/A   Partly Cloudy
4:53 PM - - N/A% 30.08 in 10.0 mi WNW 21.9 mph 29.9 mph N/A   Partly Cloudy
5:53 PM - - N/A% 30.09 in 10.0 mi WNW 25.3 mph 34.5 mph N/A   Clear
6:53 PM - - N/A% 30.11 in 10.0 mi WNW 26.5 mph 33.4 mph N/A   Clear
7:53 PM - - N/A% 30.12 in 10.0 mi WNW 25.3 mph 39.1 mph N/A   Mostly Cloudy
8:53 PM - - N/A% 30.12 in 10.0 mi WNW 19.6 mph 29.9 mph N/A   Clear
9:53 PM - - N/A% 30.13 in 10.0 mi WNW 18.4 mph 29.9 mph N/A   Scattered Clouds
10:53 PM - - N/A% 30.14 in 10.0 mi WNW 21.9 mph 29.9 mph N/A   Overcast
11:53 PM - - N/A% 30.14 in 10.0 mi WNW 21.9 mph 28.8 mph N/A   Partly Cloudy